Location: Palau
(42.3086°N, 3.1507°E)
Time: 09:44:49
(UTC+00:00)

Cosmos 2058 - Pass Details

Date: 26 May 2020
Orbit: 561 x 585 km, 82.5° (Epoch: 11 July)

Event Time Altitude Azimuth Distance (km) Brightness Sun altitude
Exits shadow 03:24:49 - 183° (S) 2,710 6.0 -8.7°
Reaches altitude 10° 03:26:50 10° 181° (S) 1,883 5.2 -8.4°
Maximum altitude 03:30:59 76° 96° (E) 602 3.1 -7.8°
Drops below altitude 10° 03:35:12 10° 11° (N) 1,911 6.4 -7.2°
Sets 03:37:25 0° 10° (N) 2,817 7.2 -6.9°
